| time (UTC) | temp F | wind direction | speed knots | gust knots | rain 1hr in | rain 24hr in | rain mn in | humidity % | barometer mb |
| 20260505130215 | 62 | 261 | 4.3 | 8.7 | 0.00 | 0.00 | 0.00 | 77 | 1004.3 |
| 20260505124635 | 61 | 265 | 4.3 | 8.7 | 0.00 | 0.00 | 0.00 | 78 | 1004.4 |
| 20260505124110 | 61 | 262 | 3.5 | 10.4 | 0.00 | 0.00 | 0.00 | 77 | 1004.4 |
| 20260505123611 | 61 | 274 | 3.5 | 10.4 | 0.00 | 0.00 | 0.00 | 78 | 1004.3 |
| 20260505123037 | 61 | 225 | 3.5 | 9.6 | 0.00 | 0.00 | 0.00 | 79 | 1004.5 |
| 20260505122536 | 61 | 252 | 3.5 | 7.0 | 0.00 | 0.00 | 0.00 | 79 | 1004.4 |
| 20260505122009 | 61 | 219 | 2.6 | 6.1 | 0.00 | 0.00 | 0.00 | 79 | 1004.5 |
| 20260505121504 | 61 | 231 | 3.5 | 7.0 | 0.00 | 0.00 | 0.00 | 79 | 1004.4 |
| 20260505120938 | 61 | 279 | 3.5 | 7.0 | 0.00 | 0.00 | 0.00 | 80 | 1004.3 |
| 20260505120434 | 61 | 190 | 2.6 | 6.1 | 0.00 | 0.00 | 0.00 | 79 | 1004.3 |
| 20260505115909 | 61 | 227 | 3.5 | 9.6 | 0.00 | 0.00 | 0.00 | 79 | 1004.0 |
| 20260505115341 | 61 | 229 | 3.5 | 9.6 | 0.00 | 0.00 | 0.00 | 79 | 1003.9 |
| 20260505114839 | 61 | 242 | 3.5 | 8.7 | 0.00 | 0.00 | 0.00 | 78 | 1003.7 |
| 20260505114342 | 61 | 267 | 3.5 | 8.7 | 0.00 | 0.00 | 0.00 | 78 | 1003.3 |
| 20260505113811 | 61 | 246 | 4.3 | 10.4 | 0.00 | 0.00 | 0.00 | 78 | 1003.1 |
| 20260505113245 | 61 | 267 | 3.5 | 10.4 | 0.00 | 0.00 | 0.00 | 77 | 1003.0 |
| 20260505112720 | 61 | 237 | 4.3 | 9.6 | 0.00 | 0.00 | 0.00 | 77 | 1003.0 |
| 20260505112151 | 61 | 236 | 4.3 | 7.8 | 0.00 | 0.00 | 0.00 | 77 | 1002.8 |
| 20260505111650 | 61 | 238 | 3.5 | 10.4 | 0.00 | 0.00 | 0.00 | 77 | 1002.5 |
| 20260505111122 | 61 | 236 | 3.5 | 10.4 | 0.00 | 0.00 | 0.00 | 77 | 1002.5 |
| 20260505110625 | 61 | 242 | 3.5 | 9.6 | 0.00 | 0.00 | 0.00 | 78 | 1002.5 |
| 20260505110115 | 61 | 247 | 2.6 | 6.1 | 0.00 | 0.00 | 0.00 | 78 | 1002.4 |
| 20260505101918 | 62 | 246 | 3.5 | 11.3 | 0.00 | 0.00 | 0.00 | 76 | 1002.3 |
| 20260505101355 | 62 | 269 | 4.3 | 13.0 | 0.00 | 0.00 | 0.00 | 76 | 1002.2 |
| 20260505100827 | 62 | 274 | 4.3 | 13.0 | 0.00 | 0.00 | 0.00 | 76 | 1002.3 |
| 20260505100259 | 62 | 251 | 4.3 | 12.2 | 0.00 | 0.00 | 0.00 | 76 | 1002.3 |
| 20260505095757 | 62 | 215 | 4.3 | 12.2 | 0.00 | 0.00 | 0.00 | 76 | 1002.3 |
| 20260505095254 | 62 | 264 | 4.3 | 9.6 | 0.00 | 0.00 | 0.00 | 76 | 1002.1 |
| 20260505094751 | 62 | 242 | 4.3 | 10.4 | 0.00 | 0.00 | 0.00 | 76 | 1002.2 |
| 20260505094226 | 62 | 229 | 4.3 | 10.4 | 0.00 | 0.00 | 0.00 | 77 | 1002.1 |
| 20260505093657 | 62 | 228 | 3.5 | 7.8 | 0.00 | 0.00 | 0.00 | 77 | 1001.9 |
| 20260505093152 | 62 | 248 | 3.5 | 7.8 | 0.00 | 0.00 | 0.00 | 77 | 1001.9 |
| 20260505092628 | 63 | 221 | 4.3 | 9.6 | 0.00 | 0.00 | 0.00 | 76 | 1001.7 |
| 20260505092059 | 63 | 266 | 4.3 | 9.6 | 0.00 | 0.00 | 0.00 | 76 | 1001.5 |
| 20260505091557 | 63 | 246 | 3.5 | 8.7 | 0.00 | 0.00 | 0.00 | 76 | 1001.6 |
| 20260505091053 | 63 | 210 | 3.5 | 8.7 | 0.00 | 0.00 | 0.00 | 75 | 1001.7 |
| 20260505090551 | 63 | 242 | 4.3 | 7.0 | 0.00 | 0.00 | 0.00 | 75 | 1001.7 |
| 20260505090024 | 63 | 161 | 4.3 | 10.4 | 0.00 | 0.00 | 0.00 | 75 | 1001.8 |
| 20260505085520 | 63 | 261 | 4.3 | 10.4 | 0.00 | 0.00 | 0.00 | 75 | 1001.7 |
| 20260505085018 | 64 | 277 | 4.3 | 13.0 | 0.00 | 0.00 | 0.00 | 75 | 1001.6 |
| 20260505084514 | 64 | 254 | 5.2 | 13.0 | 0.00 | 0.00 | 0.00 | 75 | 1001.6 |
| 20260505084012 | 63 | 225 | 4.3 | 11.3 | 0.00 | 0.00 | 0.00 | 76 | 1001.5 |
| 20260505083507 | 63 | 120 | 3.5 | 7.0 | 0.00 | 0.00 | 0.00 | 76 | 1001.7 |
| 20260505082949 | 63 | 248 | 2.6 | 8.7 | 0.00 | 0.00 | 0.00 | 77 | 1001.4 |
| 20260505082420 | 63 | 273 | 2.6 | 5.2 | 0.00 | 0.00 | 0.00 | 77 | 1001.4 |
| 20260505081922 | 63 | 251 | 2.6 | 6.1 | 0.00 | 0.00 | 0.00 | 78 | 1001.4 |
| 20260505081419 | 63 | 212 | 2.6 | 6.1 | 0.00 | 0.00 | 0.00 | 78 | 1001.3 |
| 20260505080857 | 63 | 224 | 2.6 | 6.1 | 0.00 | 0.00 | 0.00 | 78 | 1001.2 |
| 20260505080353 | 63 | 198 | 1.7 | 6.1 | 0.00 | 0.00 | 0.00 | 78 | 1001.2 |
| 20260505075851 | 63 | 225 | 1.7 | 3.5 | 0.00 | 0.00 | 0.00 | 78 | 1001.0 |
| 20260505075349 | 62 | 273 | 1.7 | 3.5 | 0.00 | 0.00 | 0.00 | 79 | 1000.9 |
| 20260505074831 | 62 | 252 | 1.7 | 4.3 | 0.00 | 0.00 | 0.00 | 80 | 1000.9 |
| 20260505074315 | 62 | 252 | 1.7 | 6.1 | 0.00 | 0.00 | 0.00 | 80 | 1001.0 |
| 20260505073816 | 63 | 148 | 1.7 | 6.1 | 0.00 | 0.00 | 0.00 | 79 | 1000.9 |
| 20260505073314 | 63 | 231 | 1.7 | 3.5 | 0.00 | 0.00 | 0.00 | 78 | 1001.0 |
| 20260505072813 | 64 | 202 | 1.7 | 6.1 | 0.00 | 0.00 | 0.00 | 76 | 1000.9 |
| 20260505072304 | 64 | 212 | 2.6 | 6.1 | 0.00 | 0.00 | 0.00 | 76 | 1000.9 |
| 20260505071809 | 64 | 265 | 1.7 | 5.2 | 0.00 | 0.00 | 0.00 | 75 | 1001.0 |
| 20260505071246 | 64 | 267 | 1.7 | 5.2 | 0.00 | 0.00 | 0.00 | 76 | 1001.0 |
| 20260505070752 | 64 | 255 | 1.7 | 3.5 | 0.00 | 0.00 | 0.00 | 76 | 1001.2 |
| 20260505070246 | 64 | 261 | 1.7 | 4.3 | 0.00 | 0.00 | 0.00 | 76 | 1001.1 |
| 20260505065746 | 64 | 247 | 1.7 | 6.1 | 0.00 | 0.00 | 0.00 | 77 | 1001.4 |
| 20260505065230 | 64 | 254 | 1.7 | 6.1 | 0.00 | 0.00 | 0.00 | 77 | 1001.3 |
| 20260505064713 | 64 | 257 | 1.7 | 6.1 | 0.00 | 0.00 | 0.00 | 76 | 1001.5 |
| 20260505064211 | 65 | 241 | 2.6 | 6.1 | 0.00 | 0.00 | 0.00 | 76 | 1001.5 |
| 20260505063715 | 65 | 236 | 1.7 | 6.1 | 0.00 | 0.00 | 0.00 | 74 | 1001.6 |
| 20260505063148 | 66 | 288 | 2.6 | 4.3 | 0.00 | 0.00 | 0.00 | 72 | 1001.6 |
| 20260505062623 | 67 | 340 | 3.5 | 14.8 | 0.00 | 0.00 | 0.00 | 70 | 1001.7 |
| 20260505062109 | 67 | 261 | 3.5 | 7.8 | 0.00 | 0.00 | 0.00 | 69 | 1001.7 |
| 20260505061541 | 67 | 277 | 3.5 | 9.6 | 0.00 | 0.00 | 0.00 | 70 | 1001.6 |
| 20260505061046 | 67 | 263 | 4.3 | 9.6 | 0.00 | 0.00 | 0.00 | 70 | 1001.8 |
| 20260505060543 | 67 | 281 | 4.3 | 9.6 | 0.00 | 0.00 | 0.00 | 70 | 1001.9 |
| 20260505060021 | 68 | 250 | 4.3 | 10.4 | 0.00 | 0.00 | 0.00 | 69 | 1001.0 |
| 20260505055513 | 67 | 203 | 4.3 | 10.4 | 0.00 | 0.00 | 0.00 | 69 | 1000.9 |
| 20260505054952 | 68 | 242 | 4.3 | 8.7 | 0.00 | 0.00 | 0.00 | 69 | 1001.0 |
| 20260505054425 | 68 | 231 | 4.3 | 9.6 | 0.00 | 0.00 | 0.00 | 69 | 1000.9 |
| 20260505053904 | 67 | 225 | 4.3 | 9.6 | 0.00 | 0.00 | 0.00 | 70 | 1000.9 |
| 20260505053340 | 67 | 190 | 3.5 | 7.8 | 0.00 | 0.00 | 0.00 | 70 | 1000.9 |
| 20260505052814 | 67 | 198 | 3.5 | 7.8 | 0.00 | 0.00 | 0.00 | 71 | 1000.9 |
| 20260505052251 | 67 | 236 | 3.5 | 7.8 | 0.00 | 0.00 | 0.00 | 72 | 1001.0 |
| 20260505051753 | 67 | 254 | 4.3 | 7.8 | 0.00 | 0.00 | 0.00 | 72 | 1001.1 |
| 20260505051233 | 67 | 210 | 4.3 | 13.0 | 0.00 | 0.00 | 0.00 | 72 | 1001.1 |
| 20260505050703 | 68 | 200 | 4.3 | 13.0 | 0.00 | 0.00 | 0.00 | 71 | 1001.2 |
| 20260505050136 | 67 | 219 | 3.5 | 7.0 | 0.00 | 0.00 | 0.00 | 69 | 1001.3 |
| 20260505041544 | 66 | 202 | 3.5 | 7.0 | 0.00 | 0.00 | 0.00 | 73 | 1001.5 |
| 20260505041030 | 66 | 236 | 3.5 | 7.0 | 0.00 | 0.00 | 0.00 | 73 | 1001.5 |
| 20260505040527 | 66 | 186 | 3.5 | 9.6 | 0.00 | 0.00 | 0.00 | 73 | 1001.5 |
| 20260505040001 | 66 | 215 | 3.5 | 9.6 | 0.00 | 0.00 | 0.00 | 73 | 1001.5 |
| 20260505035458 | 66 | 200 | 3.5 | 7.0 | 0.00 | 0.00 | 0.00 | 73 | 1001.6 |
| 20260505034952 | 66 | 197 | 4.3 | 7.0 | 0.00 | 0.00 | 0.00 | 72 | 1001.6 |
| 20260505034450 | 66 | 199 | 5.2 | 8.7 | 0.00 | 0.00 | 0.00 | 72 | 1001.7 |
| 20260505033930 | 66 | 207 | 5.2 | 8.7 | 0.00 | 0.00 | 0.00 | 72 | 1001.7 |
| 20260505033430 | 66 | 182 | 5.2 | 9.6 | 0.00 | 0.00 | 0.00 | 72 | 1001.7 |
| 20260505032910 | 66 | 198 | 4.3 | 9.6 | 0.00 | 0.00 | 0.00 | 72 | 1001.8 |
| 20260505032341 | 66 | 189 | 4.3 | 10.4 | 0.00 | 0.00 | 0.00 | 72 | 1001.8 |
| 20260505031841 | 66 | 198 | 3.5 | 10.4 | 0.00 | 0.00 | 0.00 | 71 | 1001.8 |
| 20260505031316 | 67 | 227 | 2.6 | 7.0 | 0.00 | 0.00 | 0.00 | 71 | 1001.9 |
| 20260505030817 | 67 | 221 | 2.6 | 6.1 | 0.00 | 0.00 | 0.00 | 70 | 1002.0 |
| 20260505030301 | 67 | 241 | 2.6 | 6.1 | 0.00 | 0.00 | 0.00 | 69 | 1002.0 |
| 20260505025750 | 67 | 270 | 2.6 | 5.2 | 0.00 | 0.00 | 0.00 | 69 | 1002.0 |
| 20260505025249 | 67 | 200 | 3.5 | 6.1 | 0.00 | 0.00 | 0.00 | 69 | 1002.0 |
| 20260505024750 | 67 | 213 | 3.5 | 6.1 | 0.00 | 0.00 | 0.00 | 68 | 1002.1 |
| 20260505024235 | 67 | 213 | 3.5 | 8.7 | 0.00 | 0.00 | 0.00 | 67 | 1002.0 |
| 20260505023737 | 68 | 198 | 3.5 | 6.1 | 0.00 | 0.00 | 0.00 | 67 | 1002.0 |
| 20260505023221 | 68 | 200 | 3.5 | 9.6 | 0.00 | 0.00 | 0.00 | 66 | 1002.0 |
| 20260505022723 | 68 | 200 | 3.5 | 7.0 | 0.00 | 0.00 | 0.00 | 66 | 1001.9 |
| 20260505022155 | 68 | 169 | 3.5 | 7.8 | 0.00 | 0.00 | 0.00 | 65 | 1001.9 |
| 20260505021640 | 68 | 207 | 3.5 | 7.8 | 0.00 | 0.00 | 0.00 | 64 | 1002.0 |
| 20260505021140 | 69 | 195 | 3.5 | 7.0 | 0.00 | 0.00 | 0.00 | 64 | 1002.0 |
| 20260505020640 | 69 | 196 | 3.5 | 7.0 | 0.00 | 0.00 | 0.00 | 63 | 1001.9 |
| 20260505020139 | 69 | 209 | 3.5 | 8.7 | 0.00 | 0.00 | 0.00 | 62 | 1001.9 |
| 20260505015637 | 69 | 196 | 3.5 | 8.7 | 0.00 | 0.00 | 0.00 | 62 | 1001.9 |
| 20260505015109 | 69 | 213 | 3.5 | 6.1 | 0.00 | 0.00 | 0.00 | 62 | 1001.9 |
| 20260505014553 | 69 | 215 | 3.5 | 6.1 | 0.00 | 0.00 | 0.00 | 62 | 1001.9 |
| 20260505014031 | 70 | 219 | 3.5 | 6.1 | 0.00 | 0.00 | 0.00 | 61 | 1001.9 |
| 20260505013527 | 70 | 214 | 2.6 | 7.0 | 0.00 | 0.00 | 0.00 | 61 | 1001.8 |
| 20260505013031 | 70 | 191 | 2.6 | 7.0 | 0.00 | 0.00 | 0.00 | 61 | 1001.6 |
| 20260505012529 | 70 | 232 | 3.5 | 7.8 | 0.00 | 0.00 | 0.00 | 61 | 1001.5 |
| 20260505012008 | 70 | 225 | 3.5 | 7.8 | 0.00 | 0.00 | 0.00 | 60 | 1001.5 |
| 20260505011506 | 70 | 202 | 3.5 | 7.0 | 0.00 | 0.00 | 0.00 | 61 | 1001.4 |
| 20260505011004 | 69 | 217 | 2.6 | 5.2 | 0.00 | 0.00 | 0.00 | 62 | 1001.4 |
| 20260505010436 | 69 | 234 | 2.6 | 7.0 | 0.00 | 0.00 | 0.00 | 63 | 1001.4 |
| 20260505005938 | 69 | 213 | 3.5 | 7.0 | 0.00 | 0.00 | 0.00 | 63 | 1001.4 |
| 20260505005407 | 69 | 280 | 3.5 | 7.8 | 0.00 | 0.00 | 0.00 | 63 | 1001.4 |
| 20260505004842 | 70 | 250 | 3.5 | 10.4 | 0.00 | 0.00 | 0.00 | 62 | 1001.3 |
| 20260505004316 | 70 | 242 | 3.5 | 10.4 | 0.00 | 0.00 | 0.00 | 62 | 1001.2 |
| 20260505003810 | 70 | 247 | 3.5 | 8.7 | 0.00 | 0.00 | 0.00 | 61 | 1001.1 |
| 20260505003245 | 70 | 244 | 4.3 | 8.7 | 0.00 | 0.00 | 0.00 | 61 | 1001.2 |
| 20260505002744 | 70 | 248 | 4.3 | 10.4 | 0.00 | 0.00 | 0.00 | 61 | 1001.2 |
| 20260505002212 | 70 | 252 | 4.3 | 10.4 | 0.00 | 0.00 | 0.00 | 61 | 1001.0 |
| 20260505001705 | 70 | 215 | 4.3 | 9.6 | 0.00 | 0.00 | 0.00 | 61 | 1000.9 |
| 20260505001146 | 71 | 265 | 5.2 | 9.6 | 0.00 | 0.00 | 0.00 | 62 | 1000.9 |
| 20260505000627 | 71 | 242 | 4.3 | 11.3 | 0.00 | 0.00 | 0.00 | 61 | 1001.0 |
| 20260505000135 | 71 | 243 | 4.3 | 11.3 | 0.00 | 0.00 | 0.00 | 62 | 1000.8 |
| 20260504235627 | 71 | 243 | 4.3 | 8.7 | 0.00 | 0.00 | 0.00 | 62 | 1000.9 |
| 20260504235129 | 71 | 281 | 4.3 | 9.6 | 0.00 | 0.00 | 0.00 | 62 | 1000.8 |
| 20260504234600 | 71 | 217 | 5.2 | 12.2 | 0.00 | 0.00 | 0.00 | 62 | 1000.6 |
| 20260504234059 | 71 | 246 | 4.3 | 11.3 | 0.00 | 0.00 | 0.00 | 62 | 1000.6 |
| 20260504233559 | 71 | 232 | 5.2 | 9.6 | 0.00 | 0.00 | 0.00 | 61 | 1000.6 |
| 20260504233058 | 72 | 256 | 5.2 | 14.8 | 0.00 | 0.00 | 0.00 | 61 | 1000.6 |
| 20260504232532 | 72 | 236 | 5.2 | 14.8 | 0.00 | 0.00 | 0.00 | 60 | 1000.6 |
| 20260504232004 | 72 | 180 | 5.2 | 10.4 | 0.00 | 0.00 | 0.00 | 60 | 1000.5 |
| 20260504231502 | 72 | 268 | 5.2 | 10.4 | 0.00 | 0.00 | 0.00 | 60 | 1000.5 |
| 20260504230942 | 73 | 269 | 4.3 | 10.4 | 0.00 | 0.00 | 0.00 | 61 | 1000.4 |
| 20260504230435 | 73 | 222 | 4.3 | 9.6 | 0.00 | 0.00 | 0.00 | 60 | 1000.3 |
| 20260504225927 | 73 | 248 | 4.3 | 9.6 | 0.00 | 0.00 | 0.00 | 60 | 1000.3 |
| 20260504225404 | 74 | 240 | 4.3 | 9.6 | 0.00 | 0.00 | 0.00 | 60 | 1000.3 |
| 20260504224903 | 74 | 229 | 5.2 | 9.6 | 0.00 | 0.00 | 0.00 | 59 | 1000.3 |
| 20260504224403 | 74 | 217 | 6.1 | 9.6 | 0.00 | 0.00 | 0.00 | 58 | 1000.3 |
| 20260504223909 | 74 | 208 | 5.2 | 13.0 | 0.00 | 0.00 | 0.00 | 59 | 1000.4 |
| 20260504223342 | 74 | 243 | 5.2 | 13.0 | 0.00 | 0.00 | 0.00 | 58 | 1000.5 |
| 20260504222839 | 74 | 213 | 4.3 | 10.4 | 0.00 | 0.00 | 0.00 | 59 | 1000.5 |
| 20260504222311 | 74 | 249 | 5.2 | 13.0 | 0.00 | 0.00 | 0.00 | 59 | 1000.6 |
| 20260504221810 | 74 | 197 | 6.1 | 13.0 | 0.00 | 0.00 | 0.00 | 58 | 1000.7 |
| 20260504221240 | 74 | 247 | 6.1 | 12.2 | 0.00 | 0.00 | 0.00 | 58 | 1000.6 |
| 20260504220741 | 74 | 225 | 7.0 | 14.8 | 0.00 | 0.00 | 0.00 | 58 | 1000.7 |
| 20260504220212 | 74 | 225 | 6.1 | 13.0 | 0.00 | 0.00 | 0.00 | 59 | 1000.7 |
| 20260504215644 | 73 | 244 | 6.1 | 13.9 | 0.00 | 0.00 | 0.00 | 60 | 1000.8 |
| 20260504215142 | 73 | 240 | 6.1 | 13.9 | 0.00 | 0.00 | 0.00 | 60 | 1000.9 |
| 20260504214614 | 73 | 215 | 5.2 | 13.0 | 0.00 | 0.00 | 0.00 | 61 | 1000.9 |
| 20260504214118 | 73 | 248 | 6.1 | 12.2 | 0.00 | 0.00 | 0.00 | 61 | 1001.0 |
| 20260504213611 | 73 | 211 | 5.2 | 12.2 | 0.00 | 0.00 | 0.00 | 60 | 1000.9 |
| 20260504213106 | 74 | 221 | 5.2 | 12.2 | 0.00 | 0.00 | 0.00 | 59 | 1000.9 |
| 20260504212541 | 74 | 183 | 5.2 | 13.0 | 0.00 | 0.00 | 0.00 | 58 | 1000.8 |
| 20260504212014 | 74 | 283 | 4.3 | 13.0 | 0.00 | 0.00 | 0.00 | 59 | 1001.0 |
| 20260504211446 | 74 | 279 | 4.3 | 8.7 | 0.00 | 0.00 | 0.00 | 59 | 1000.9 |
| 20260504210944 | 75 | 189 | 4.3 | 7.8 | 0.00 | 0.00 | 0.00 | 59 | 1001.1 |
| 20260504210436 | 75 | 214 | 5.2 | 11.3 | 0.00 | 0.00 | 0.00 | 60 | 1001.1 |
| 20260504205936 | 75 | 192 | 5.2 | 11.3 | 0.00 | 0.00 | 0.00 | 58 | 1001.1 |
| 20260504205410 | 75 | 199 | 5.2 | 11.3 | 0.00 | 0.00 | 0.00 | 59 | 1001.2 |
| 20260504204905 | 74 | 218 | 5.2 | 11.3 | 0.00 | 0.00 | 0.00 | 60 | 1001.3 |
| 20260504204339 | 75 | 250 | 5.2 | 15.6 | 0.00 | 0.00 | 0.00 | 59 | 1001.4 |
| 20260504203813 | 74 | 227 | 5.2 | 15.6 | 0.00 | 0.00 | 0.00 | 59 | 1001.6 |
| 20260504203249 | 75 | 232 | 5.2 | 11.3 | 0.00 | 0.00 | 0.00 | 58 | 1001.6 |
| 20260504202722 | 75 | 192 | 4.3 | 9.6 | 0.00 | 0.00 | 0.00 | 57 | 1001.8 |
| 20260504202157 | 75 | 218 | 4.3 | 8.7 | 0.00 | 0.00 | 0.00 | 58 | 1001.8 |
| 20260504201629 | 75 | 217 | 5.2 | 11.3 | 0.00 | 0.00 | 0.00 | 57 | 1001.9 |
| 20260504201127 | 75 | 184 | 5.2 | 11.3 | 0.00 | 0.00 | 0.00 | 57 | 1002.0 |
| 20260504200558 | 75 | 211 | 4.3 | 11.3 | 0.00 | 0.00 | 0.00 | 56 | 1002.0 |
| 20260504200056 | 75 | 232 | 3.5 | 7.0 | 0.00 | 0.00 | 0.00 | 56 | 1002.0 |
| 20260504195529 | 75 | 206 | 4.3 | 7.8 | 0.00 | 0.00 | 0.00 | 58 | 1002.1 |
| 20260504195027 | 74 | 201 | 5.2 | 8.7 | 0.00 | 0.00 | 0.00 | 58 | 1002.2 |
| 20260504194524 | 74 | 239 | 6.1 | 12.2 | 0.00 | 0.00 | 0.00 | 59 | 1002.3 |
| 20260504194002 | 74 | 142 | 5.2 | 12.2 | 0.00 | 0.00 | 0.00 | 56 | 1002.4 |
| 20260504193436 | 74 | 211 | 5.2 | 10.4 | 0.00 | 0.00 | 0.00 | 57 | 1002.6 |
| 20260504192943 | 74 | 196 | 5.2 | 10.4 | 0.00 | 0.00 | 0.00 | 57 | 1002.7 |
| 20260504192434 | 73 | 209 | 6.1 | 14.8 | 0.00 | 0.00 | 0.00 | 57 | 1002.7 |
| 20260504191930 | 73 | 208 | 6.1 | 14.8 | 0.00 | 0.00 | 0.00 | 58 | 1002.7 |
| 20260504191430 | 72 | 178 | 6.1 | 12.2 | 0.00 | 0.00 | 0.00 | 58 | 1002.8 |
| 20260504190906 | 72 | 188 | 6.1 | 11.3 | 0.00 | 0.00 | 0.00 | 59 | 1002.9 |
| 20260504190405 | 73 | 174 | 6.1 | 10.4 | 0.00 | 0.00 | 0.00 | 60 | 1002.9 |
| 20260504185903 | 72 | 198 | 7.0 | 12.2 | 0.00 | 0.00 | 0.00 | 59 | 1003.0 |
| 20260504185405 | 72 | 146 | 6.1 | 12.2 | 0.00 | 0.00 | 0.00 | 59 | 1003.0 |
| 20260504184840 | 72 | 202 | 7.0 | 11.3 | 0.00 | 0.00 | 0.00 | 59 | 1003.1 |
| 20260504184317 | 72 | 217 | 6.1 | 11.3 | 0.00 | 0.00 | 0.00 | 59 | 1003.2 |
| 20260504183817 | 72 | 175 | 6.1 | 11.3 | 0.00 | 0.00 | 0.00 | 57 | 1003.3 |
| 20260504183319 | 71 | 213 | 7.0 | 11.3 | 0.00 | 0.00 | 0.00 | 60 | 1003.3 |
| 20260504182817 | 72 | 202 | 6.1 | 11.3 | 0.00 | 0.00 | 0.00 | 58 | 1003.4 |
| 20260504182317 | 72 | 200 | 6.1 | 10.4 | 0.00 | 0.00 | 0.00 | 60 | 1003.4 |
| 20260504181815 | 72 | 197 | 6.1 | 10.4 | 0.00 | 0.00 | 0.00 | 58 | 1003.4 |
| 20260504181315 | 71 | 193 | 6.1 | 10.4 | 0.00 | 0.00 | 0.00 | 59 | 1003.5 |
| 20260504180803 | 71 | 206 | 6.1 | 12.2 | 0.00 | 0.00 | 0.00 | 60 | 1003.7 |
| 20260504180301 | 71 | 203 | 6.1 | 12.2 | 0.00 | 0.00 | 0.00 | 61 | 1003.6 |
| 20260504175733 | 71 | 202 | 6.1 | 10.4 | 0.00 | 0.00 | 0.00 | 60 | 1003.7 |
| 20260504175220 | 70 | 201 | 6.1 | 9.6 | 0.00 | 0.00 | 0.00 | 61 | 1003.7 |
| 20260504174715 | 71 | 201 | 6.1 | 9.6 | 0.00 | 0.00 | 0.00 | 61 | 1004.1 |
| 20260504174154 | 71 | 195 | 5.2 | 11.3 | 0.00 | 0.00 | 0.00 | 60 | 1004.1 |
| 20260504173625 | 71 | 217 | 5.2 | 11.3 | 0.00 | 0.00 | 0.00 | 62 | 1004.1 |
| 20260504173056 | 70 | 236 | 6.1 | 10.4 | 0.00 | 0.00 | 0.00 | 60 | 1004.1 |
| 20260504172534 | 70 | 184 | 5.2 | 8.7 | 0.00 | 0.00 | 0.00 | 60 | 1004.2 |
| 20260504172019 | 70 | 194 | 5.2 | 8.7 | 0.00 | 0.00 | 0.00 | 62 | 1004.1 |
| 20260504171502 | 70 | 195 | 5.2 | 10.4 | 0.00 | 0.00 | 0.00 | 61 | 1004.2 |
| 20260504171000 | 70 | 198 | 5.2 | 10.4 | 0.00 | 0.00 | 0.00 | 61 | 1004.3 |
| 20260504170437 | 70 | 177 | 5.2 | 8.7 | 0.00 | 0.00 | 0.00 | 64 | 1004.4 |
| 20260504160117 | 68 | 194 | 3.5 | 7.0 | 0.00 | 0.00 | 0.00 | 64 | 1004.9 |
| 20260504151000 | 65 | 217 | 3.5 | 7.0 | 0.00 | 0.00 | 0.00 | 66 | 1005.2 |
| 20260504150431 | 64 | 209 | 3.5 | 8.7 | 0.00 | 0.00 | 0.00 | 66 | 1005.3 |
| 20260504141249 | 61 | 217 | 3.5 | 10.4 | 0.00 | 0.00 | 0.00 | 72 | 1005.7 |
| 20260504140731 | 61 | 196 | 3.5 | 7.0 | 0.00 | 0.00 | 0.00 | 71 | 1005.7 |
| 20260504140200 | 60 | 200 | 3.5 | 7.8 | 0.00 | 0.00 | 0.00 | 71 | 1005.7 |